Regional Weather Roundup
Issued by NWS

Home | Current Version | Previous Version | Text Only | Print | Product List | Glossary On
Versions: 1 2 3 4 5 6 7 8 9 10 11 12 13 14 15 16 17 18 19 20 21 22 23 24 25 26 27 28 29 30 31 32 33 34 35 36 37 38 39 40 41 42 43 44 45 46 47 48 49 50
000
ASUS43 KTOP 311908
RWRKS

WEATHER ROUNDUP FOR KANSAS
NATIONAL WEATHER SERVICE GOODLAND KS
200 PM CDT MON AUG 31 2015

NOTE:  "FAIR" INDICATES FEW OR NO CLOUDS BELOW 12,000 FEET WITH NO
SIGNIFICANT WEATHER AND/OR OBSTRUCTIONS TO VISIBILITY.

KSZ001>006-013>018-027>032-041>047-312000-
NORTHWEST KANSAS

CITY           SKY/WX    TMP DP  RH WIND       PRES   REMARKS
GOODLAND       SUNNY     91  51  25 E9        29.96F
HAYS           SUNNY     97  57  26 S13G23    29.89F HX  95
HILL CITY      SUNNY     96  56  26 S10       29.90F
RUSSELL        SUNNY     96  56  26 S15G22    29.89F
$$

KSZ061>065-074>080-084>089-312000-
SOUTHWEST KANSAS

CITY           SKY/WX    TMP DP  RH WIND       PRES   REMARKS
DODGE CITY     SUNNY     93  52  24 S18G28    29.94F
ELKHART          N/A     90  56  31 S15         N/A
GARDEN CITY    SUNNY     95  51  22 SW24G31   29.92F
GREAT BEND     SUNNY     97  57  26 S20G25    29.90F HX  95
LIBERAL        SUNNY     93  52  24 SW21G28   29.95F
PRATT          SUNNY     91  54  27 MISG      29.95S
$$

KSZ066>073-081>083-090>101-312000-
SOUTHEAST KANSAS

CITY           SKY/WX    TMP DP  RH WIND       PRES   REMARKS
CHANUTE        SUNNY     87  70  56 S15       29.99F
COFFEYVILLE    SUNNY     86  72  62 S14       29.98F
HUTCHINSON     SUNNY     91  64  40 S15G22    29.94F
MEDICINE LODGE   N/A     92  63  38 SE8       29.92F
NEWTON         SUNNY     90  66  45 S12       29.98S
PARSONS        SUNNY     87  73  62 S9        30.00F
WICHITA INTL   MOSUNNY   89  67  47 S14       29.94F
WICHITA JABRA  SUNNY     86  69  56 SE13      29.95F
WICHITA MCCONL SUNNY     87  64  45 SE14      29.95F
WINFIELD       SUNNY     91  65  41 SE14G25   29.96F
$$

KSZ007>012-019>026-033>040-048>060-102>105-312000-
NORTHEAST KANSAS

CITY           SKY/WX    TMP DP  RH WIND       PRES   REMARKS
CONCORDIA      SUNNY     88  67  49 S12       29.93F
EMPORIA        SUNNY     88  68  51 S12G22    29.96F
LAWRENCE       SUNNY     89  67  47 S10       29.96F
MANHATTAN      SUNNY     91  69  48 S9        29.92F HX  96
MARYSVILLE     SUNNY    N/A N/A N/A S12G17    29.94F
OLATHE IND     SUNNY     86  70  58 SE9       29.99F
OLATHE EXE     SUNNY     85  69  58 S8        29.98F
SALINA         SUNNY     94  63  35 S15       29.91F HX  95
TOPEKA BILLARD SUNNY     88  69  53 S7        29.96F
TOPEKA FORBES  SUNNY     90  69  50 S7        29.96F
$$


USA.gov is the U.S. government's official web portal to all federal, state and local government web resources and services.